EW7868 Weather Reports


Display with metric or nautical units.
time (UTC)temp
F
wind
direction
speed
MPH
gust
MPH
rain 1hr
in
rain 24hr
in
rain mn
in
humidity
%
barometer
mb
20260510065029 45 0 0.0 1.0 0.00 0.00 0.00 86 1011.7
20260510064526 45 74 0.0 0.0 0.00 0.00 0.00 85 1011.4
20260510064022 46 74 0.0 0.0 0.00 0.00 0.00 85 1011.3
20260510063519 46 90 0.0 1.0 0.00 0.00 0.00 85 1011.4
20260510063017 45 15 0.0 0.0 0.00 0.00 0.00 84 1011.5
20260510062512 45 66 0.0 0.0 0.00 0.00 0.00 83 1011.3
20260510062007 46 90 0.0 0.0 0.00 0.00 0.00 82 1011.0
20260510061505 46 90 0.0 0.0 0.00 0.00 0.00 81 1011.2
20260510061001 46 90 0.0 0.0 0.00 0.00 0.00 81 1011.1
20260510060458 47 90 0.0 0.0 0.00 0.00 0.00 80 1011.0
20260510055954 46 195 0.0 0.0 0.00 0.00 0.00 80 1011.1
20260510055450 46 195 0.0 0.0 0.00 0.00 0.00 79 1010.9
20260510054948 46 195 0.0 0.0 0.00 0.00 0.00 79 1011.0
20260510054443 47 195 0.0 0.0 0.00 0.00 0.00 78 1010.8
20260510053938 47 195 0.0 0.0 0.00 0.00 0.00 77 1010.8
20260510053434 48 195 0.0 0.0 0.00 0.00 0.00 77 1010.7
20260510052930 48 90 0.0 0.0 0.00 0.00 0.00 77 1010.8
20260510052426 48 90 0.0 0.0 0.00 0.00 0.00 76 1010.4
20260510051923 49 90 0.0 0.0 0.00 0.00 0.00 76 1010.4
20260510051419 48 90 0.0 0.0 0.00 0.00 0.00 76 1010.4
20260510050916 48 90 0.0 0.0 0.00 0.00 0.00 75 1010.5
20260510050412 48 90 0.0 0.0 0.00 0.00 0.00 74 1010.4
20260510045910 49 90 0.0 0.0 0.00 0.00 0.00 74 1010.5
20260510045407 49 90 0.0 0.0 0.00 0.00 0.00 73 1010.2
20260510044903 49 90 0.0 0.0 0.00 0.00 0.00 73 1010.1
20260510044400 50 90 0.0 0.0 0.00 0.00 0.00 71 1010.2
20260510043857 51 90 0.0 0.0 0.00 0.00 0.00 69 1010.0
20260510043353 51 90 0.0 0.0 0.00 0.00 0.00 68 1009.9
20260510042851 52 90 0.0 0.0 0.00 0.00 0.00 66 1010.1
20260510042347 52 90 0.0 0.0 0.00 0.00 0.00 63 1009.9
20260510041843 53 90 0.0 0.0 0.00 0.00 0.00 61 1009.8
20260510041340 54 90 0.0 3.0 0.00 0.00 0.00 60 1009.6
20260510040838 54 98 0.0 2.0 0.00 0.00 0.00 60 1009.7
20260510040334 55 100 0.0 2.0 0.00 0.00 0.00 59 1009.6
20260510035830 55 90 0.0 3.0 0.00 0.00 0.00 59 1009.3
20260510035326 55 90 4.0 4.0 0.00 0.00 0.00 58 1009.4
20260510034822 55 123 0.0 3.0 0.00 0.00 0.00 59 1009.1
20260510034320 55 90 2.0 3.0 0.00 0.00 0.00 59 1008.9
20260510033816 56 90 0.0 2.0 0.00 0.00 0.00 59 1008.9
20260510033313 56 103 0.0 1.0 0.00 0.00 0.00 58 1009.1
20260510032809 57 107 2.0 4.0 0.00 0.00 0.00 57 1008.5
20260510032306 57 88 5.0 8.0 0.00 0.00 0.00 57 1008.6
20260510031802 57 90 2.0 4.0 0.00 0.00 0.00 59 1008.4
20260510031257 57 90 3.0 3.0 0.00 0.00 0.00 60 1008.4
20260510030751 58 123 2.0 3.0 0.00 0.00 0.00 59 1008.6
20260510030248 58 90 2.0 3.0 0.00 0.00 0.00 57 1008.2
20260510025745 58 78 2.0 3.0 0.00 0.00 0.00 59 1008.4
20260510025243 57 90 0.0 2.0 0.00 0.00 0.00 61 1007.8
20260510024740 57 346 0.0 0.0 0.00 0.00 0.00 65 1008.1
20260510024236 57 346 0.0 0.0 0.00 0.00 0.00 67 1007.9
20260510023732 57 346 0.0 0.0 0.00 0.00 0.00 65 1007.8
20260510023224 58 346 0.0 0.0 0.00 0.00 0.00 63 1007.8
20260510022720 59 346 0.0 0.0 0.00 0.00 0.00 63 1007.9
20260510022220 60 346 0.0 0.0 0.00 0.00 0.00 61 1007.5
20260510021715 60 346 0.0 0.0 0.00 0.00 0.00 60 1007.7
20260510021213 61 328 2.0 2.0 0.00 0.00 0.00 60 1007.5
20260510020708 61 345 0.0 2.0 0.00 0.00 0.00 60 1007.2
20260510020203 62 286 0.0 2.0 0.00 0.00 0.00 59 1007.1
20260510015659 62 0 0.0 2.0 0.00 0.00 0.00 59 1007.0
20260510015156 62 278 0.0 2.0 0.00 0.00 0.00 58 1006.9
20260510014656 62 0 0.0 2.0 0.00 0.00 0.00 58 1007.0
20260510014153 63 200 0.0 4.0 0.00 0.00 0.00 57 1006.9
20260510013648 63 340 0.0 2.0 0.00 0.00 0.00 56 1006.5
20260510013144 64 243 0.0 3.0 0.00 0.00 0.00 56 1006.4
20260510012644 64 251 0.0 5.0 0.00 0.00 0.00 55 1006.2
20260510012140 65 337 0.0 5.0 0.00 0.00 0.00 54 1006.0
20260510011635 65 48 2.0 4.0 0.00 0.00 0.00 54 1005.8
20260510011131 65 30 3.0 6.0 0.00 0.00 0.00 54 1005.9
20260510010627 65 216 0.0 5.0 0.00 0.00 0.00 54 1005.8
20260510010124 65 60 0.0 4.0 0.00 0.00 0.00 54 1005.8
20260510005619 66 257 1.0 7.0 0.00 0.00 0.00 54 1005.8
20260510005117 66 82 0.0 3.0 0.00 0.00 0.00 54 1005.3
20260510004615 66 270 2.0 3.0 0.00 0.00 0.00 53 1005.3
20260510004113 67 195 1.0 5.0 0.00 0.00 0.00 52 1005.3
20260510003610 67 135 2.0 4.0 0.00 0.00 0.00 52 1005.1
20260510003106 67 300 0.0 6.0 0.00 0.00 0.00 51 1005.2
20260510002600 68 117 3.0 6.0 0.00 0.00 0.00 50 1005.0
20260510002057 69 250 0.0 6.0 0.00 0.00 0.00 49 1005.0
20260510001555 69 7 1.0 8.0 0.00 0.00 0.00 48 1004.9
20260510001054 70 274 6.0 9.0 0.00 0.00 0.00 48 1004.7
20260510000548 70 90 1.0 8.0 0.00 0.00 0.00 47 1004.7
20260510000046 70 187 1.0 11.0 0.00 0.00 0.00 47 1004.8
20260509235542 69 350 2.0 6.0 0.00 0.00 0.00 49 1004.7
20260509235038 69 263 3.0 7.0 0.00 0.00 0.00 48 1004.7
20260509234534 70 103 5.0 9.0 0.00 0.00 0.00 46 1004.7
20260509234033 69 270 0.0 6.0 0.00 0.00 0.00 47 1004.7
20260509233530 69 262 0.0 5.0 0.00 0.00 0.00 47 1004.8
20260509233027 69 23 1.0 7.0 0.00 0.00 0.00 47 1004.6
20260509232524 69 321 3.0 9.0 0.00 0.00 0.00 47 1004.6
20260509232020 69 9 3.0 8.0 0.00 0.00 0.00 47 1004.7
20260509231517 69 296 0.0 6.0 0.00 0.00 0.00 47 1004.8
20260509231015 69 263 7.0 10.0 0.00 0.00 0.00 46 1004.6
20260509230511 69 12 0.0 9.0 0.00 0.00 0.00 46 1004.7
20260509230008 69 95 2.0 6.0 0.00 0.00 0.00 46 1004.5
20260509225503 69 352 0.0 5.0 0.00 0.00 0.00 45 1004.3
20260509224959 69 262 0.0 9.0 0.00 0.00 0.00 45 1004.2
20260509224455 69 270 4.0 6.0 0.00 0.00 0.00 45 1004.4
20260509223952 69 270 3.0 8.0 0.00 0.00 0.00 44 1004.4
20260509223449 69 52 5.0 5.0 0.00 0.00 0.00 44 1004.2
20260509222946 70 275 5.0 7.0 0.00 0.00 0.00 44 1004.2
20260509222442 70 45 4.0 10.0 0.00 0.00 0.00 44 1004.2
20260509221938 70 227 5.0 12.0 0.00 0.00 0.00 43 1004.2
20260509221434 70 110 2.0 7.0 0.00 0.00 0.00 43 1003.9
20260509220930 70 228 0.0 6.0 0.00 0.00 0.00 42 1004.0
20260509220426 70 68 5.0 11.0 0.00 0.00 0.00 42 1003.8
20260509215923 71 337 0.0 11.0 0.00 0.00 0.00 42 1003.9
20260509215418 71 118 5.0 11.0 0.00 0.00 0.00 41 1003.7
20260509214916 71 346 3.0 12.0 0.00 0.00 0.00 41 1003.6
20260509214413 71 142 3.0 9.0 0.00 0.00 0.00 40 1003.7
20260509213910 72 326 3.0 15.0 0.00 0.00 0.00 40 1003.8
20260509213405 72 184 2.0 13.0 0.00 0.00 0.00 39 1003.8
20260509212903 72 150 6.0 11.0 0.00 0.00 0.00 40 1003.7
20260509212400 72 303 2.0 7.0 0.00 0.00 0.00 41 1003.7
20260509211856 72 202 5.0 6.0 0.00 0.00 0.00 40 1003.3
20260509211352 72 323 3.0 8.0 0.00 0.00 0.00 40 1003.4
20260509210849 72 80 4.0 9.0 0.00 0.00 0.00 39 1003.2
20260509210346 72 230 3.0 10.0 0.00 0.00 0.00 38 1003.5
20260509205846 72 264 3.0 9.0 0.00 0.00 0.00 38 1003.0
20260509205340 72 0 2.0 9.0 0.00 0.00 0.00 39 1003.2
20260509204838 72 270 3.0 6.0 0.00 0.00 0.00 37 1003.2
20260509204334 72 76 3.0 13.0 0.00 0.00 0.00 37 1003.1
20260509203830 73 275 4.0 13.0 0.00 0.00 0.00 39 1003.1
20260509203327 72 229 3.0 9.0 0.00 0.00 0.00 38 1003.2
20260509202823 72 311 0.0 9.0 0.00 0.00 0.00 36 1002.7
20260509202320 72 334 0.0 6.0 0.00 0.00 0.00 39 1003.2
20260509201819 72 120 1.0 7.0 0.00 0.00 0.00 38 1003.2
20260509201316 71 25 3.0 7.0 0.00 0.00 0.00 38 1003.0
20260509200812 70 330 2.0 7.0 0.00 0.00 0.00 40 1003.2
20260509200308 70 196 3.0 11.0 0.00 0.00 0.00 42 1003.4
20260509195804 70 328 3.0 16.0 0.00 0.00 0.00 43 1003.7
20260509195300 72 51 7.0 11.0 0.00 0.00 0.00 38 1004.0
20260509194759 73 328 5.0 9.0 0.00 0.00 0.00 34 1003.0
20260509194255 73 328 4.0 9.0 0.00 0.00 0.00 35 1003.1
20260509193753 74 45 2.0 9.0 0.00 0.00 0.00 36 1002.7
20260509193253 75 247 6.0 9.0 0.00 0.00 0.00 34 1003.0
20260509192749 76 288 4.0 8.0 0.00 0.00 0.00 35 1002.9
20260509192244 76 230 3.0 9.0 0.00 0.00 0.00 32 1002.6
20260509191739 77 343 3.0 8.0 0.00 0.00 0.00 34 1003.1
20260509191236 77 232 7.0 9.0 0.00 0.00 0.00 36 1002.9
20260509190732 77 214 11.0 11.0 0.00 0.00 0.00 40 1003.2
20260509190229 76 199 2.0 8.0 0.00 0.00 0.00 42 1003.0
20260509185727 77 67 3.0 9.0 0.00 0.00 0.00 40 1002.9
20260509185223 76 98 3.0 5.0 0.00 0.00 0.00 43 1002.9
20260509184721 77 226 4.0 10.0 0.00 0.00 0.00 43 1003.0
20260509184218 74 240 7.0 15.0 0.00 0.00 0.00 42 1002.6
20260509183714 75 288 3.0 14.0 0.00 0.00 0.00 42 1002.7
20260509183209 76 70 2.0 14.0 0.00 0.00 0.00 42 1003.0
20260509182705 74 222 5.0 16.0 0.00 0.00 0.00 43 1002.7
20260509182203 73 291 5.0 6.0 0.00 0.00 0.00 46 1003.1
20260509181700 73 189 4.0 8.0 0.00 0.00 0.00 45 1002.9
20260509181158 72 168 1.0 8.0 0.00 0.00 0.00 45 1002.7
20260509180654 73 225 7.0 8.0 0.00 0.00 0.00 45 1002.9
20260509180150 74 332 4.0 7.0 0.00 0.00 0.00 45 1003.0
20260509175646 75 210 2.0 13.0 0.00 0.00 0.00 42 1002.9
20260509175143 75 333 3.0 6.0 0.00 0.00 0.00 45 1003.0
20260509174639 74 337 2.0 5.0 0.00 0.00 0.00 48 1003.0
20260509174134 74 210 3.0 8.0 0.00 0.00 0.00 45 1003.0
20260509173630 74 252 5.0 9.0 0.00 0.00 0.00 44 1003.0
20260509173126 74 270 0.0 6.0 0.00 0.00 0.00 45 1003.1
20260509172623 74 290 2.0 7.0 0.00 0.00 0.00 45 1003.1
20260509172119 74 346 0.0 6.0 0.00 0.00 0.00 50 1002.9
20260509171615 73 206 9.0 10.0 0.00 0.00 0.00 48 1003.2
20260509171111 73 230 5.0 5.0 0.00 0.00 0.00 50 1003.1
20260509170608 72 203 5.0 7.0 0.00 0.00 0.00 53 1003.0
20260509170104 72 261 2.0 7.0 0.00 0.00 0.00 56 1003.0
20260509165602 71 279 0.0 6.0 0.00 0.00 0.00 55 1003.2
20260509165058 70 200 5.0 10.0 0.00 0.00 0.00 56 1003.1
20260509164554 71 273 0.0 3.0 0.00 0.00 0.00 59 1003.0
20260509164050 70 74 2.0 7.0 0.00 0.00 0.00 60 1003.0
20260509163548 69 209 1.0 7.0 0.00 0.00 0.00 62 1003.4
20260509163044 68 189 6.0 12.0 0.00 0.00 0.00 61 1003.0
20260509162541 68 258 3.0 11.0 0.00 0.00 0.00 64 1003.2
20260509162036 68 200 7.0 9.0 0.00 0.00 0.00 66 1003.4
20260509161533 68 201 8.0 8.0 0.00 0.00 0.00 67 1003.1
20260509161028 67 204 6.0 8.0 0.00 0.00 0.00 65 1003.2
20260509160524 68 196 0.0 7.0 0.00 0.00 0.00 68 1003.4
20260509160020 67 189 3.0 5.0 0.00 0.00 0.00 68 1003.2
20260509155516 67 195 5.0 7.0 0.00 0.00 0.00 70 1003.2
20260509155012 66 173 1.0 7.0 0.00 0.00 0.00 71 1003.2
20260509154509 66 198 6.0 9.0 0.00 0.00 0.00 71 1003.3
20260509154007 66 194 5.0 8.0 0.00 0.00 0.00 72 1003.4
20260509153503 66 193 6.0 9.0 0.00 0.00 0.00 73 1003.6
20260509153000 66 198 5.0 5.0 0.00 0.00 0.00 74 1003.5
20260509152455 65 194 5.0 7.0 0.00 0.00 0.00 75 1003.5
20260509151952 64 233 0.0 12.0 0.00 0.00 0.00 76 1003.8
20260509151449 65 193 7.0 8.0 0.00 0.00 0.00 75 1003.8
20260509150947 65 213 0.0 7.0 0.00 0.00 0.00 76 1003.5
20260509150444 64 249 0.0 7.0 0.00 0.00 0.00 76 1003.6
20260509145942 64 225 2.0 7.0 0.00 0.00 0.00 76 1003.5
20260509145437 63 238 3.0 6.0 0.00 0.00 0.00 77 1003.4
20260509144932 63 171 0.0 9.0 0.00 0.00 0.00 76 1003.4
20260509144430 64 206 2.0 4.0 0.00 0.00 0.00 77 1003.6
20260509143927 62 203 1.0 6.0 0.00 0.00 0.00 78 1003.5
20260509143424 62 208 4.0 6.0 0.00 0.00 0.00 79 1003.6
20260509142920 62 208 4.0 9.0 0.00 0.00 0.00 79 1003.4
20260509142417 62 240 8.0 8.0 0.00 0.00 0.00 77 1003.6
20260509141912 63 305 3.0 4.0 0.00 0.00 0.00 78 1003.3
20260509141410 62 258 5.0 12.0 0.00 0.00 0.00 78 1003.3
20260509140906 62 196 11.0 11.0 0.00 0.00 0.00 80 1003.6
20260509140403 62 63 0.0 9.0 0.00 0.00 0.00 83 1003.3
20260509135901 61 69 1.0 8.0 0.00 0.00 0.00 83 1003.2
20260509135358 60 201 0.0 9.0 0.00 0.00 0.00 85 1003.2
20260509134855 59 204 4.0 9.0 0.00 0.00 0.00 85 1003.2
20260509134353 59 194 0.0 7.0 0.00 0.00 0.00 86 1003.3
20260509133849 59 183 2.0 11.0 0.00 0.00 0.00 85 1003.4
20260509133346 59 197 0.0 9.0 0.00 0.00 0.00 86 1003.2
20260509132845 58 194 4.0 11.0 0.00 0.00 0.00 88 1003.4
20260509132343 58 212 2.0 7.0 0.00 0.00 0.00 88 1003.3
20260509131840 58 165 3.0 7.0 0.00 0.00 0.00 89 1003.4
20260509131336 56 197 3.0 9.0 0.00 0.00 0.00 91 1003.3
20260509130833 56 201 3.0 6.0 0.00 0.00 0.00 91 1003.6
20260509130328 55 203 3.0 9.0 0.00 0.00 0.00 93 1003.5
20260509125825 55 233 3.0 10.0 0.00 0.00 0.00 94 1003.5
20260509125322 54 214 3.0 9.0 0.00 0.00 0.00 96 1003.6
20260509124818 53 196 5.0 7.0 0.00 0.00 0.00 96 1003.5
20260509124315 53 203 4.0 8.0 0.00 0.00 0.00 97 1003.5
20260509123814 53 190 4.0 6.0 0.00 0.00 0.00 98 1003.6
20260509123310 53 196 7.0 9.0 0.00 0.00 0.00 98 1003.7
20260509122805 53 207 4.0 7.0 0.00 0.00 0.00 99 1003.5
20260509122305 52 196 3.0 6.0 0.00 0.00 0.00 99 1003.6
20260509121759 51 195 3.0 7.0 0.00 0.00 0.00 99 1003.6
20260509121257 51 203 5.0 6.0 0.00 0.00 0.00 99 1003.5
20260509120755 51 188 6.0 9.0 0.00 0.00 0.00 99 1003.4
20260509120252 51 187 5.0 5.0 0.00 0.00 0.00 99 1003.6
20260509115751 51 192 5.0 7.0 0.00 0.00 0.00 99 1003.4
20260509115247 50 198 2.0 4.0 0.00 0.00 0.00 99 1003.3
20260509114745 50 219 3.0 6.0 0.00 0.00 0.00 99 1003.1
20260509114244 50 106 2.0 8.0 0.00 0.00 0.00 99 1003.1
20260509113742 50 257 2.0 7.0 0.00 0.00 0.00 99 1003.0
20260509113239 50 198 2.0 7.0 0.00 0.00 0.00 99 1002.4
20260509112736 50 198 6.0 6.0 0.00 0.00 0.00 99 1002.3
20260509112233 50 212 3.0 6.0 0.00 0.00 0.00 99 1002.5
20260509111730 50 192 2.0 7.0 0.00 0.00 0.00 99 1002.6
20260509111226 50 192 5.0 7.0 0.00 0.00 0.00 99 1002.4
20260509110724 50 195 3.0 8.0 0.00 0.00 0.00 99 1002.3
20260509110221 50 193 5.0 7.0 0.00 0.00 0.00 99 1002.4
20260509105719 50 198 2.0 8.0 0.00 0.00 0.00 99 1002.4
20260509105216 50 190 2.0 6.0 0.00 0.00 0.00 99 1002.5
20260509104713 50 203 1.0 7.0 0.00 0.00 0.00 99 1002.6
20260509104210 50 194 3.0 5.0 0.00 0.00 0.00 99 1002.5
20260509103708 50 190 3.0 5.0 0.00 0.00 0.00 99 1002.6
20260509103205 50 199 2.0 6.0 0.00 0.00 0.00 99 1002.9
20260509102703 50 197 3.0 5.0 0.00 0.00 0.00 99 1002.6
20260509102200 50 195 3.0 5.0 0.00 0.00 0.00 99 1002.9
20260509101656 50 195 4.0 6.0 0.00 0.00 0.00 99 1002.9
20260509101153 50 105 1.0 6.0 0.00 0.00 0.00 98 1003.2
20260509100650 50 205 3.0 4.0 0.00 0.00 0.00 98 1003.0
20260509100147 50 198 3.0 5.0 0.00 0.00 0.00 98 1003.2
20260509095644 50 193 5.0 5.0 0.00 0.00 0.00 98 1002.9
20260509095141 50 187 2.0 6.0 0.00 0.00 0.00 98 1003.3
20260509094637 50 200 3.0 4.0 0.00 0.00 0.00 98 1003.2
20260509094134 50 206 2.0 4.0 0.00 0.00 0.00 98 1003.4
20260509093633 50 199 6.0 7.0 0.00 0.00 0.00 98 1003.2
20260509093130 50 189 0.0 5.0 0.00 0.00 0.00 98 1003.4
20260509092627 50 199 2.0 4.0 0.00 0.00 0.00 98 1003.3
20260509092126 50 190 3.0 4.0 0.00 0.00 0.00 98 1003.4
20260509091624 50 194 0.0 5.0 0.00 0.00 0.00 98 1003.4
20260509091119 50 192 2.0 4.0 0.00 0.00 0.00 98 1003.4
20260509090617 50 186 3.0 3.0 0.00 0.00 0.00 98 1003.3
20260509090115 50 198 2.0 4.0 0.00 0.00 0.00 98 1003.5
20260509085612 50 183 2.0 4.0 0.00 0.00 0.00 98 1003.3
20260509085108 50 192 3.0 3.0 0.00 0.00 0.00 98 1003.3
20260509084605 50 188 2.0 3.0 0.00 0.00 0.00 98 1003.4
20260509084102 50 200 1.0 3.0 0.00 0.00 0.00 98 1003.3
20260509083559 50 183 2.0 4.0 0.00 0.00 0.00 98 1003.4
20260509083055 50 192 2.0 4.0 0.00 0.00 0.00 97 1003.3
20260509082553 50 198 2.0 5.0 0.00 0.00 0.00 98 1003.3
20260509082050 50 209 0.0 4.0 0.00 0.00 0.00 97 1003.2
20260509081547 50 193 3.0 5.0 0.00 0.00 0.00 97 1003.5
20260509081044 50 195 2.0 5.0 0.00 0.00 0.00 97 1003.3
20260509080542 50 193 5.0 5.0 0.00 0.00 0.00 97 1003.1
20260509080040 50 190 4.0 4.0 0.00 0.00 0.00 97 1003.3
20260509075537 50 194 1.0 4.0 0.00 0.00 0.00 97 1003.5
20260509075035 50 202 3.0 3.0 0.00 0.00 0.00 97 1003.6
20260509074532 50 180 0.0 4.0 0.00 0.00 0.00 97 1003.5
20260509074028 50 191 1.0 4.0 0.00 0.00 0.00 97 1003.6
20260509073525 50 203 1.0 3.0 0.00 0.00 0.00 97 1003.5
20260509073021 50 192 2.0 3.0 0.00 0.00 0.00 97 1003.7
20260509072518 50 204 0.0 5.0 0.00 0.00 0.00 96 1003.7
20260509072015 50 197 2.0 3.0 0.00 0.00 0.00 96 1003.6
20260509071511 50 195 0.0 3.0 0.00 0.00 0.00 96 1003.8
20260509071009 50 203 0.0 5.0 0.00 0.00 0.00 96 1004.1
20260509070506 51 184 2.0 4.0 0.00 0.00 0.00 96 1003.9
20260509070002 51 204 0.0 4.0 0.00 0.00 0.00 96 1003.8